| time (UTC) | temp F | wind direction | speed MPH | gust MPH | rain 1hr in | rain 24hr in | rain mn in | humidity % | barometer mb |
| 20260901124529 | 60 | 107 | 0.0 | 1.0 | 0.00 | 0.01 | 0.00 | 89 | 1012.3 |
| 20260901123033 | 60 | 107 | 0.0 | 0.0 | 0.00 | 0.01 | 0.00 | 89 | 1012.4 |
| 20260901121538 | 60 | 107 | 0.0 | 1.0 | 0.00 | 0.01 | 0.00 | 90 | 1012.4 |
| 20260901120026 | 60 | 107 | 0.0 | 0.0 | 0.00 | 0.01 | 0.00 | 90 | 1012.4 |
| 20260901114527 | 59 | 107 | 0.0 | 0.0 | 0.00 | 0.01 | 0.00 | 90 | 1012.4 |
| 20260901113026 | 59 | 107 | 0.0 | 0.0 | 0.00 | 0.01 | 0.00 | 90 | 1012.4 |
| 20260901111525 | 59 | 107 | 0.0 | 0.0 | 0.00 | 0.01 | 0.00 | 90 | 1012.4 |
| 20260901110032 | 59 | 107 | 0.0 | 1.0 | 0.00 | 0.01 | 0.00 | 89 | 1012.4 |
| 20260901104528 | 59 | 107 | 0.0 | 1.0 | 0.00 | 0.01 | 0.00 | 89 | 1012.5 |
| 20260901103026 | 59 | 107 | 0.0 | 0.0 | 0.00 | 0.01 | 0.00 | 88 | 1012.4 |
| 20260901101526 | 59 | 107 | 0.0 | 2.0 | 0.00 | 0.01 | 0.00 | 88 | 1012.5 |
| 20260901100019 | 59 | 107 | 0.0 | 2.0 | 0.00 | 0.01 | 0.00 | 89 | 1012.4 |
| 20260901094518 | 59 | 107 | 0.0 | 0.0 | 0.00 | 0.01 | 0.00 | 88 | 1012.6 |
| 20260901093017 | 59 | 107 | 0.0 | 0.0 | 0.00 | 0.01 | 0.00 | 88 | 1012.3 |
| 20260901091615 | 60 | 107 | 0.0 | 0.0 | 0.00 | 0.01 | 0.00 | 87 | 1012.3 |
| 20260901090013 | 60 | 107 | 0.0 | 0.0 | 0.00 | 0.01 | 0.00 | 87 | 1012.5 |
| 20260901084507 | 60 | 107 | 0.0 | 1.0 | 0.00 | 0.01 | 0.00 | 86 | 1012.2 |
| 20260901083006 | 61 | 107 | 0.0 | 2.0 | 0.00 | 0.01 | 0.00 | 85 | 1012.2 |
| 20260901081505 | 61 | 110 | 0.0 | 1.0 | 0.00 | 0.01 | 0.00 | 84 | 1012.3 |
| 20260901080005 | 61 | 110 | 0.0 | 3.0 | 0.00 | 0.01 | 0.00 | 84 | 1012.1 |
| 20260901074502 | 61 | 110 | 0.0 | 0.0 | 0.00 | 0.01 | 0.00 | 85 | 1012.5 |
| 20260901073100 | 61 | 110 | 0.0 | 0.0 | 0.00 | 0.01 | 0.00 | 85 | 1012.4 |
| 20260901071559 | 61 | 110 | 0.0 | 3.0 | 0.00 | 0.01 | 0.00 | 85 | 1012.2 |
| 20260901064555 | 62 | 110 | 1.0 | 4.0 | 0.00 | 0.01 | 0.00 | 86 | 1012.4 |
| 20260901063055 | 62 | 109 | 4.0 | 8.0 | 0.00 | 0.01 | 0.00 | 85 | 1012.5 |
| 20260901061551 | 62 | 113 | 2.0 | 7.0 | 0.00 | 0.01 | 0.00 | 84 | 1012.7 |
| 20260901060049 | 63 | 120 | 0.0 | 6.0 | 0.00 | 0.01 | 0.00 | 83 | 1013.0 |
| 20260901054549 | 63 | 184 | 0.0 | 0.0 | 0.00 | 0.01 | 0.01 | 82 | 1013.1 |
| 20260901053053 | 63 | 184 | 0.0 | 3.0 | 0.00 | 0.01 | 0.01 | 81 | 1013.1 |
| 20260901051549 | 63 | 180 | 2.0 | 7.0 | 0.00 | 0.01 | 0.01 | 82 | 1013.2 |
| 20260901050047 | 63 | 207 | 4.0 | 10.0 | 0.00 | 0.01 | 0.01 | 82 | 1012.9 |
| 20260901044602 | 63 | 212 | 5.0 | 9.0 | 0.00 | 0.01 | 0.01 | 81 | 1012.9 |
| 20260901043046 | 63 | 173 | 4.0 | 7.0 | 0.00 | 0.01 | 0.01 | 81 | 1012.6 |
| 20260901041544 | 64 | 172 | 0.0 | 3.0 | 0.00 | 0.01 | 0.01 | 81 | 1012.4 |
| 20260901040044 | 64 | 171 | 1.0 | 6.0 | 0.00 | 0.01 | 0.01 | 81 | 1012.2 |
| 20260901034543 | 64 | 116 | 0.0 | 1.0 | 0.00 | 0.01 | 0.01 | 79 | 1011.9 |
| 20260901033043 | 64 | 115 | 3.0 | 6.0 | 0.00 | 0.01 | 0.01 | 78 | 1011.7 |
| 20260901031543 | 64 | 317 | 0.0 | 1.0 | 0.00 | 0.01 | 0.01 | 77 | 1011.7 |
| 20260901030050 | 64 | 318 | 0.0 | 1.0 | 0.00 | 0.01 | 0.01 | 76 | 1011.4 |
| 20260901024504 | 65 | 258 | 1.0 | 3.0 | 0.00 | 0.01 | 0.01 | 77 | 1011.7 |
| 20260901023001 | 65 | 252 | 0.0 | 1.0 | 0.00 | 0.01 | 0.01 | 75 | 1011.6 |
| 20260901021501 | 66 | 251 | 0.0 | 2.0 | 0.00 | 0.01 | 0.01 | 73 | 1011.8 |
| 20260901020002 | 67 | 269 | 3.0 | 11.0 | 0.00 | 0.01 | 0.01 | 70 | 1012.1 |
| 20260901014501 | 70 | 248 | 10.0 | 17.0 | 0.00 | 0.01 | 0.01 | 66 | 1011.9 |
| 20260901013101 | 72 | 320 | 0.0 | 1.0 | 0.00 | 0.01 | 0.01 | 65 | 1011.7 |
| 20260901011606 | 72 | 320 | 0.0 | 1.0 | 0.00 | 0.01 | 0.01 | 62 | 1011.5 |
| 20260901010059 | 72 | 320 | 0.0 | 2.0 | 0.00 | 0.01 | 0.01 | 61 | 1011.8 |
| 20260901004604 | 73 | 319 | 1.0 | 4.0 | 0.00 | 0.01 | 0.01 | 60 | 1012.0 |
| 20260901003102 | 73 | 317 | 0.0 | 0.0 | 0.00 | 0.01 | 0.01 | 60 | 1012.2 |
| 20260901001557 | 73 | 318 | 0.0 | 1.0 | 0.00 | 0.01 | 0.01 | 58 | 1012.2 |
| 20260901000057 | 73 | 317 | 0.0 | 5.0 | 0.00 | 0.01 | 0.01 | 59 | 1012.3 |
| 20260831234556 | 73 | 355 | 1.0 | 8.0 | 0.00 | 0.01 | 0.01 | 59 | 1012.4 |
| 20260831233054 | 73 | 340 | 0.0 | 5.0 | 0.00 | 0.01 | 0.01 | 60 | 1012.3 |
| 20260831231559 | 73 | 324 | 4.0 | 8.0 | 0.00 | 0.01 | 0.01 | 62 | 1012.4 |
| 20260831230053 | 73 | 5 | 4.0 | 8.0 | 0.00 | 0.01 | 0.01 | 62 | 1012.2 |
| 20260831224551 | 73 | 342 | 3.0 | 9.0 | 0.00 | 0.02 | 0.01 | 61 | 1012.2 |
| 20260831223050 | 73 | 9 | 4.0 | 8.0 | 0.00 | 0.02 | 0.01 | 62 | 1012.1 |
| 20260831221548 | 72 | 347 | 3.0 | 8.0 | 0.00 | 0.02 | 0.01 | 63 | 1012.2 |
| 20260831220048 | 73 | 337 | 4.0 | 8.0 | 0.00 | 0.02 | 0.01 | 62 | 1012.7 |
| 20260831214617 | 73 | 330 | 1.0 | 4.0 | 0.00 | 0.26 | 0.01 | 62 | 1012.8 |
| 20260831213026 | 72 | 350 | 3.0 | 5.0 | 0.00 | 0.26 | 0.01 | 61 | 1012.6 |
| 20260831211516 | 73 | 326 | 1.0 | 4.0 | 0.00 | 0.26 | 0.01 | 63 | 1012.8 |
| 20260831210028 | 72 | 74 | 1.0 | 5.0 | 0.00 | 0.26 | 0.01 | 64 | 1013.1 |
| 20260831204514 | 71 | 82 | 2.0 | 4.0 | 0.00 | 0.26 | 0.01 | 64 | 1013.5 |
| 20260831203024 | 71 | 74 | 2.0 | 8.0 | 0.00 | 0.26 | 0.01 | 67 | 1013.6 |
| 20260831201530 | 71 | 104 | 4.0 | 9.0 | 0.00 | 0.26 | 0.01 | 69 | 1013.6 |
| 20260831200036 | 70 | 63 | 5.0 | 9.0 | 0.00 | 0.26 | 0.01 | 68 | 1013.8 |
| 20260831194522 | 71 | 51 | 3.0 | 6.0 | 0.00 | 0.26 | 0.01 | 68 | 1014.1 |
| 20260831193021 | 71 | 109 | 4.0 | 9.0 | 0.00 | 0.26 | 0.01 | 68 | 1014.5 |
| 20260831191524 | 71 | 136 | 0.0 | 3.0 | 0.00 | 0.26 | 0.01 | 70 | 1015.1 |
| 20260831190021 | 70 | 136 | 0.0 | 3.0 | 0.00 | 0.26 | 0.01 | 68 | 1015.5 |
| 20260831184519 | 69 | 142 | 0.0 | 4.0 | 0.00 | 0.26 | 0.01 | 71 | 1015.8 |
| 20260831183012 | 69 | 170 | 0.0 | 3.0 | 0.00 | 0.26 | 0.01 | 71 | 1016.2 |
| 20260831181511 | 68 | 170 | 0.0 | 4.0 | 0.00 | 0.26 | 0.01 | 71 | 1016.3 |
| 20260831180006 | 67 | 175 | 0.0 | 1.0 | 0.00 | 0.26 | 0.01 | 75 | 1016.3 |
| 20260831174505 | 67 | 175 | 0.0 | 1.0 | 0.00 | 0.26 | 0.01 | 75 | 1016.3 |
| 20260831173003 | 66 | 175 | 0.0 | 0.0 | 0.00 | 0.26 | 0.01 | 78 | 1016.2 |
| 20260831171559 | 66 | 175 | 0.0 | 2.0 | 0.00 | 0.26 | 0.01 | 81 | 1015.9 |
| 20260831170056 | 65 | 175 | 1.0 | 5.0 | 0.00 | 0.26 | 0.01 | 81 | 1015.6 |
| 20260831164604 | 64 | 93 | 0.0 | 3.0 | 0.00 | 0.26 | 0.01 | 83 | 1015.4 |
| 20260831163050 | 63 | 88 | 0.0 | 3.0 | 0.00 | 0.26 | 0.01 | 84 | 1015.1 |
| 20260831161549 | 62 | 85 | 0.0 | 2.0 | 0.00 | 0.26 | 0.01 | 86 | 1014.8 |
| 20260831160047 | 62 | 84 | 0.0 | 2.0 | 0.00 | 0.26 | 0.01 | 88 | 1014.6 |
| 20260831154545 | 61 | 78 | 0.0 | 1.0 | 0.00 | 0.30 | 0.01 | 90 | 1014.3 |
| 20260831153043 | 60 | 77 | 0.0 | 0.0 | 0.00 | 0.30 | 0.01 | 91 | 1014.1 |
| 20260831151540 | 60 | 77 | 0.0 | 0.0 | 0.00 | 0.30 | 0.01 | 91 | 1013.7 |
| 20260831150033 | 59 | 77 | 0.0 | 1.0 | 0.00 | 0.30 | 0.01 | 91 | 1013.4 |
| 20260831144533 | 59 | 77 | 1.0 | 3.0 | 0.00 | 0.30 | 0.01 | 91 | 1013.2 |
| 20260831141528 | 59 | 78 | 0.0 | 2.0 | 0.00 | 0.30 | 0.01 | 91 | 1013.1 |
| 20260831140105 | 59 | 79 | 0.0 | 1.0 | 0.00 | 0.30 | 0.01 | 91 | 1013.1 |
| 20260831134514 | 59 | 79 | 0.0 | 0.0 | 0.00 | 0.30 | 0.01 | 91 | 1012.9 |
| 20260831133029 | 59 | 79 | 0.0 | 1.0 | 0.00 | 0.30 | 0.01 | 91 | 1012.9 |
| 20260831131520 | 59 | 79 | 0.0 | 2.0 | 0.00 | 0.30 | 0.01 | 91 | 1012.6 |
| 20260831130011 | 59 | 79 | 0.0 | 0.0 | 0.01 | 0.30 | 0.01 | 91 | 1012.2 |